Regional Weather Roundup
Issued by NWS

Home | Current Version | Previous Version | Graphics & Text | Print | Product List | Glossary On
Versions: 1 2 3 4 5 6 7 8 9 10 11 12 13 14 15 16 17 18 19 20 21 22 23 24 25 26 27 28 29 30 31 32 33 34 35 36 37 38 39 40 41 42 43 44 45 46 47 48 49 50
000
ASUS43 KDMX 221506
RWRIA

WEATHER ROUNDUP FOR IOWA
NATIONAL WEATHER SERVICE DES MOINES IA
1000 AM CDT SUN APR 22 2018

NOTE: "FAIR" INDICATES FEW OR NO CLOUDS BELOW 12,000 FEET WITH NO
SIGNIFICANT WEATHER AND/OR OBSTRUCTIONS TO VISIBILITY.

* - THESE STATIONS ARE NOT NWS STATIONS...THUS NOT UNDER NWS
QUALITY CONTROL.  THEY ALSO DO NOT REPORT WEATHER SUCH
AS PRECIPITATION OR FOG.

IAZ001>003-012>014-020>022-031>034-043>046-221600-
   NORTHWEST IOWA

CITY           SKY/WX    TMP DP  RH WIND       PRES   REMARKS
CARROLL *      SUNNY     52  34  50 E12       30.26S
CHEROKEE *     MOSUNNY   52  36  54 E9        30.30R
DENISON *      CLOUDY    54  32  43 E13       30.26F
LE MARS *      SUNNY     50  36  57 E9        30.29F
ORANGE CITY *  CLOUDY    52  39  62 E8        30.30R
SHELDON *      SUNNY     48  39  71 E10       30.29S
SIOUX CITY     MOSUNNY   54  35  48 VRB7      30.28F
SPENCER        SUNNY     48  37  65 E9        30.31S
STORM LAKE *   SUNNY     50  37  62 E12       30.29R
$$

IAZ055>058-069>071-079>083-090>094-221600-
   SOUTHWEST IOWA

CITY           SKY/WX    TMP DP  RH WIND       PRES   REMARKS
ATLANTIC *     CLOUDY    55  30  38 E12       30.22F
AUDUBON *      CLOUDY    54  34  47 E13       30.25S
CLARINDA *     CLOUDY    55  32  41 E14       30.22F
COUNCIL BLFS * CLOUDY    54  34  47 NE9       30.21F
CRESTON *      CLOUDY    54  28  37 E18       30.22S
HARLAN  *      CLOUDY    52  32  46 VRB7      30.27S
LAMONI         CLOUDY    52  31  44 E13       30.20S
RED OAK *      MOSUNNY   55  34  44 NE8G16    30.21F
SHENANDOAH *   PTSUNNY   54  34  47 NE12      30.21S
$$

IAZ047>049-059>061-072>074-084-221600-
   CENTRAL IOWA

CITY           SKY/WX    TMP DP  RH WIND       PRES   REMARKS
AMES           CLOUDY    52  31  44 E9        30.27F
ANKENY *       CLOUDY    52  28  40 E10       30.27S
BOONE *        PTSUNNY   52  30  43 E15       30.26S
CHARITON *     PTSUNNY   50  30  46 E13       30.22F
DES MOINES     CLOUDY    51  30  44 E10       30.26S
GRINNELL*      CLOUDY    51  25  36 E16       30.28S
KNOXVILLE *    CLOUDY    52  27  37 E10       30.24S
MARSHALLTOWN   CLOUDY    54  30  40 E18       30.28S
NEWTON *       CLOUDY    52  27  37 E16       30.26F
PELLA *        CLOUDY    52  25  34 E12       30.27S
PERRY *        FAIR      52  26  36 E14       30.25F
$$

IAZ004>006-015-016-023>025-035-036-221600-
   NORTH CENTRAL IOWA

CITY           SKY/WX    TMP DP  RH WIND       PRES   REMARKS
ALGONA *       MOSUNNY   48  34  57 E10G18    30.31S
CLARION *      SUNNY     52  30  43 SE14      30.30S
ESTHERVILLE    MOSUNNY   39  34  82 N3        30.32S
FORT DODGE *   MOSUNNY   53  34  48 E15       30.29S
MASON CITY     SUNNY     50  37  61 E9        30.33F
FOREST CITY *  FAIR      48  32  53 E9        30.32F
WEBSTER CITY * MOSUNNY   54  32  43 E16       30.27S
IOWA FALLS *   FAIR      53  32  44 E13       30.31S
$$

IAZ007>011-017>019-026>030-037>042-050>054-066-221600-
   NORTHEAST IOWA

CITY           SKY/WX    TMP DP  RH WIND       PRES   REMARKS
CEDAR RAPIDS   FAIR      55  26  32 E17       30.28S
CHARLES CITY * FAIR      50  32  50 E10       30.33F
CLINTON *        N/A     54  27  35 E14       30.33R
DECORAH *      FAIR      50  30  46 VRB7G13   30.35R
DUBUQUE        FAIR      53  25  33 E16G22    30.33F
MONTICELLO *   FAIR      55  25  30 E14G20    30.32S
OELWEIN *      FAIR      54  30  40 E16       30.31F
WATERLOO       FAIR      55  29  36 E16       30.30F
$$

IAZ064-065-067-068-078-221600-
   EAST CENTRAL IOWA

CITY           SKY/WX    TMP DP  RH WIND       PRES   REMARKS
DAVENPORT      FAIR      53  24  32 E20       30.33R
IOWA CITY      FAIR      55  25  31 E15       30.30S
MT. PLEASANT * CLOUDY    52  28  40 E14       30.25F
MUSCATINE *    FAIR      57  25  28 E15G21    30.29R
QUAD CITIES    FAIR      54  27  35 E18       30.29F
$$

IAZ062-063-075>077-085>089-095>099-221600-
   SOUTHEAST IOWA

CITY           SKY/WX    TMP DP  RH WIND       PRES   REMARKS
BURLINGTON     CLOUDY    54  30  40 E13       30.24F
FAIRFIELD *    CLOUDY    54  28  37 E15       30.24F
FORT MADISON * CLOUDY    52  32  46 E10       30.25S
KEOKUK *       CLOUDY    54  32  43 NE9G16    30.22S
OSKALOOSA *    FAIR      52  27  37 E15       30.25F
CENTERVILLE *    N/A     54  32  43 E12       30.23S
OTTUMWA        CLOUDY    52  29  41 E17       30.24F
WASHINGTON *   CLOUDY    54  27  35 E17       30.28S
$$

ABBREVIATIONS USED IN REMARKS
   TC - TEMPERATURES IN CELSIUS
  WCI - WIND CHILL INDEX
   HX - HEAT INDEX
  VSB - VISIBILITY
$$





USA.gov is the U.S. government's official web portal to all federal, state and local government web resources and services.